Meteo pe oră la Dabrowa

Astăzi, 11 Aprilie, Duminică

Timp Temperatura Precipitaţii Vânt Presiune Umiditate
00:00 +8°C° 0 mm 2 m/s 742 mmHg 79%
01:00 +8°C° 0 mm 2 m/s 742 mmHg 78%
02:00 +8°C° 0 mm 3 m/s 742 mmHg 78%
03:00 +8°C° 0 mm 3 m/s 742 mmHg 78%
04:00 +8°C° 0 mm 3 m/s 742 mmHg 77%
05:00 +8°C° 0 mm 3 m/s 742 mmHg 74%
06:00 +9°C° 0 mm 3 m/s 742 mmHg 72%
07:00 +10°C° 0 mm 3 m/s 742 mmHg 69%
08:00 +11°C° 0 mm 4 m/s 742 mmHg 61%
09:00 +13°C° 0 mm 6 m/s 742 mmHg 53%
10:00 +15°C° 0 mm 7 m/s 742 mmHg 44%
11:00 +15°C° 0 mm 7 m/s 741 mmHg 44%
12:00 +16°C° 0 mm 7 m/s 741 mmHg 43%
13:00 +16°C° 0 mm 8 m/s 741 mmHg 43%
14:00 +15°C° 0 mm 7 m/s 741 mmHg 46%
15:00 +14°C° 0 mm 6 m/s 741 mmHg 48%
16:00 +14°C° 0 mm 6 m/s 741 mmHg 51%
17:00 +13°C° 0 mm 6 m/s 741 mmHg 56%
18:00 +11°C° 0 mm 6 m/s 741 mmHg 61%
19:00 +10°C° 0 mm 5 m/s 741 mmHg 65%
20:00 +10°C° 0 mm 5 m/s 741 mmHg 67%
21:00 +10°C° 0 mm 5 m/s 741 mmHg 69%
22:00 +10°C° 0 mm 5 m/s 741 mmHg 71%
23:00 +11°C° 0 mm 4 m/s 741 mmHg 72%

Mâine, 12 Aprilie, Luni

Timp Temperatura Precipitaţii Vânt Presiune Umiditate
00:00 +10°C° 0 mm 4 m/s 741 mmHg 73%
01:00 +10°C° 0 mm 4 m/s 741 mmHg 74%
02:00 +10°C° 0 mm 4 m/s 740 mmHg 75%
03:00 +10°C° 0 mm 3 m/s 740 mmHg 77%
04:00 +9°C° 0 mm 3 m/s 740 mmHg 78%
05:00 +10°C° 0 mm 3 m/s 740 mmHg 76%
06:00 +10°C° 0 mm 3 m/s 740 mmHg 75%
07:00 +11°C° 0 mm 3 m/s 741 mmHg 73%
08:00 +12°C° 0 mm 3 m/s 741 mmHg 69%
09:00 +13°C° 0 mm 3 m/s 741 mmHg 64%
10:00 +13°C° 0 mm 4 m/s 741 mmHg 60%
11:00 +13°C° 0 mm 4 m/s 741 mmHg 61%
12:00 +13°C° 0 mm 4 m/s 741 mmHg 63%
13:00 +13°C° 0 mm 4 m/s 741 mmHg 64%
14:00 +12°C° 0.1 mm 4 m/s 742 mmHg 70%
15:00 +9°C° 0.1 mm 5 m/s 742 mmHg 76%
16:00 +8°C° 0.1 mm 6 m/s 742 mmHg 81%
17:00 +7°C° 0.1 mm 6 m/s 743 mmHg 82%
18:00 +6°C° 0.1 mm 5 m/s 743 mmHg 82%
19:00 +5°C° 0.1 mm 5 m/s 744 mmHg 83%
20:00 +3°C° 0.1 mm 5 m/s 744 mmHg 84%
21:00 +2°C° 0.1 mm 6 m/s 744 mmHg 86%
22:00 +2°C° 0.1 mm 6 m/s 745 mmHg 87%
23:00 +1°C° 0.1 mm 6 m/s 745 mmHg 90%

Poimâine, 13 Aprilie, Marţi

Timp Temperatura Precipitaţii Vânt Presiune Umiditate
00:00 -1°C° 0.1 mm 6 m/s 745 mmHg 92%
01:00 -1°C° 0.1 mm 6 m/s 745 mmHg 94%
02:00 -1°C° 0.5 mm 6 m/s 745 mmHg 94%
03:00 -2°C° 0.5 mm 6 m/s 745 mmHg 95%
04:00 -2°C° 0.5 mm 6 m/s 745 mmHg 96%
05:00 -2°C° 1.3 mm 6 m/s 745 mmHg 96%
06:00 -1°C° 1.3 mm 5 m/s 746 mmHg 96%
07:00 -1°C° 1.3 mm 5 m/s 746 mmHg 97%
08:00 -2°C° 0.7 mm 6 m/s 746 mmHg 96%
09:00 -2°C° 0.7 mm 6 m/s 747 mmHg 95%
10:00 -1°C° 0.7 mm 6 m/s 747 mmHg 93%
11:00 -1°C° 0.1 mm 6 m/s 747 mmHg 87%
12:00 +1°C° 0.1 mm 6 m/s 747 mmHg 81%
13:00 +2°C° 0.1 mm 6 m/s 747 mmHg 75%
14:00 +2°C° 0 mm 6 m/s 747 mmHg 73%
15:00 +3°C° 0 mm 5 m/s 746 mmHg 71%
16:00 +3°C° 0 mm 5 m/s 746 mmHg 69%
17:00 +3°C° 0 mm 4 m/s 746 mmHg 71%
18:00 +3°C° 0 mm 4 m/s 746 mmHg 74%
19:00 +2°C° 0 mm 3 m/s 746 mmHg 77%
20:00 +2°C° 0 mm 3 m/s 746 mmHg 78%
21:00 +3°C° 0 mm 2 m/s 746 mmHg 79%
22:00 +3°C° 0 mm 2 m/s 746 mmHg 80%
23:00 +2°C° 0 mm 3 m/s 746 mmHg 80%

14 Aprilie, Miercuri

Timp Temperatura Precipitaţii Vânt Presiune Umiditate
00:00 +2°C° 0 mm 3 m/s 746 mmHg 79%
01:00 +1°C° 0 mm 3 m/s 746 mmHg 79%
02:00 +1°C° 0.2 mm 3 m/s 746 mmHg 81%
03:00 0°C° 0.2 mm 4 m/s 746 mmHg 82%
04:00 -1°C° 0.2 mm 4 m/s 746 mmHg 83%
05:00 -1°C° 0.2 mm 5 m/s 746 mmHg 86%
06:00 -1°C° 0.2 mm 5 m/s 746 mmHg 88%
07:00 -1°C° 0.2 mm 5 m/s 746 mmHg 90%
08:00 -1°C° 0.2 mm 6 m/s 745 mmHg 87%
09:00 -1°C° 0.2 mm 7 m/s 745 mmHg 83%
10:00 0°C° 0.2 mm 7 m/s 745 mmHg 79%
11:00 0°C° 0.3 mm 7 m/s 745 mmHg 80%
12:00 0°C° 0.3 mm 7 m/s 745 mmHg 82%
13:00 0°C° 0.3 mm 7 m/s 744 mmHg 83%
14:00 0°C° 0.9 mm 7 m/s 744 mmHg 87%
15:00 -1°C° 0.9 mm 7 m/s 744 mmHg 92%
16:00 -1°C° 0.9 mm 7 m/s 744 mmHg 96%
17:00 -2°C° 1.3 mm 7 m/s 743 mmHg 97%
18:00 -2°C° 1.3 mm 7 m/s 743 mmHg 97%
19:00 -2°C° 1.3 mm 7 m/s 743 mmHg 98%
20:00 -2°C° 1.6 mm 7 m/s 743 mmHg 98%
21:00 -3°C° 1.6 mm 7 m/s 743 mmHg 98%
22:00 -3°C° 1.6 mm 7 m/s 743 mmHg 98%
23:00 -4°C° 2.2 mm 8 m/s 742 mmHg 98%

15 Aprilie, Joi

Timp Temperatura Precipitaţii Vânt Presiune Umiditate
00:00 -4°C° 2.2 mm 8 m/s 742 mmHg 98%
01:00 -4°C° 2.2 mm 8 m/s 742 mmHg 98%
02:00 -3°C° 1.7 mm 7 m/s 741 mmHg 98%
03:00 -3°C° 1.7 mm 7 m/s 741 mmHg 98%
04:00 -3°C° 1.7 mm 6 m/s 741 mmHg 98%
05:00 -3°C° 1 mm 6 m/s 741 mmHg 99%
06:00 -2°C° 1 mm 5 m/s 742 mmHg 99%
07:00 -2°C° 1 mm 5 m/s 742 mmHg 99%
08:00 -2°C° 0.3 mm 4 m/s 742 mmHg 99%
09:00 -2°C° 0.3 mm 4 m/s 742 mmHg 99%
10:00 -2°C° 0.3 mm 4 m/s 743 mmHg 99%
11:00 -2°C° 0.2 mm 4 m/s 743 mmHg 99%
12:00 0°C° 0.2 mm 3 m/s 743 mmHg 99%
13:00 0°C° 0.2 mm 3 m/s 743 mmHg 99%
14:00 0°C° 0.4 mm 3 m/s 744 mmHg 99%
15:00 0°C° 0.4 mm 3 m/s 744 mmHg 99%
16:00 0°C° 0.4 mm 3 m/s 744 mmHg 99%
17:00 0°C° 0.4 mm 3 m/s 744 mmHg 99%
18:00 0°C° 0.4 mm 3 m/s 745 mmHg 99%
19:00 0°C° 0.4 mm 3 m/s 745 mmHg 100%
20:00 0°C° 0.2 mm 3 m/s 745 mmHg 99%
21:00 +1°C° 0.2 mm 3 m/s 746 mmHg 99%
22:00 +1°C° 0.2 mm 3 m/s 746 mmHg 99%
23:00 0°C° 0.2 mm 4 m/s 746 mmHg 99%

16 Aprilie, Vineri

Timp Temperatura Precipitaţii Vânt Presiune Umiditate
00:00 0°C° 0.2 mm 4 m/s 747 mmHg 99%
01:00 0°C° 0.2 mm 4 m/s 747 mmHg 99%
02:00 0°C° 0 mm 4 m/s 747 mmHg 99%
03:00 0°C° 0 mm 4 m/s 748 mmHg 98%
04:00 -1°C° 0 mm 4 m/s 748 mmHg 98%
05:00 0°C° 0 mm 4 m/s 748 mmHg 98%
06:00 0°C° 0 mm 4 m/s 749 mmHg 98%
07:00 0°C° 0 mm 4 m/s 749 mmHg 97%
08:00 +1°C° 0 mm 4 m/s 750 mmHg 94%
09:00 +2°C° 0 mm 5 m/s 750 mmHg 90%
10:00 +3°C° 0 mm 5 m/s 750 mmHg 86%
11:00 +5°C° 0 mm 5 m/s 750 mmHg 79%
12:00 +7°C° 0 mm 5 m/s 751 mmHg 72%
13:00 +8°C° 0 mm 6 m/s 751 mmHg 64%
14:00 +8°C° 0 mm 5 m/s 751 mmHg 64%
15:00 +9°C° 0 mm 5 m/s 751 mmHg 63%
16:00 +10°C° 0 mm 4 m/s 751 mmHg 63%
17:00 +7°C° 0 mm 4 m/s 751 mmHg 68%
18:00 +7°C° 0 mm 3 m/s 751 mmHg 73%
19:00 +5°C° 0 mm 3 m/s 751 mmHg 78%
20:00 +4°C° 0 mm 3 m/s 752 mmHg 78%
21:00 +3°C° 0 mm 3 m/s 752 mmHg 78%
22:00 +1°C° 0 mm 4 m/s 752 mmHg 78%
23:00 +2°C° 0 mm 3 m/s 752 mmHg 79%
Arată mai mult

Formular de consimțământ

Meteoprog și furnizorii noștri de servicii pot stoca și accesa date personale, precum cookies, identificatori de dispozitiv sau alte tehnologii similare pe dispozitivul dumneavoastră și procesa astfel de date pentru a personaliza conținutul și reclamele, dar și pentru a oferi caracteristici de social media și pentru a analiza traficul.

  • Stocarea și/sau accesarea informațiilor pe dispozitivul dumneavoastră

    Cookies, identificatori de dispozitiv sau alte informații pot fi stocate sau accesate pe dispozitiv în scopurile indicate mai sus.

  • Reclame și conținut personalizat, evaluarea reclamelor și a conținutului, informații despre audiențe și dezvoltarea produselor

    Reclamele și conținutul pot fi personalizate pe baza unui profil. Pot fi adăugate date suplimentare pentru a personaliza mai bine reclamele și conținutul. Performanța reclamelor și conținutului poate fi măsurată. Pot fi obținute informații despre utilizatorii care au văzut reclamele și conținutul. Aceste date pot fi utilizate pentru a dezvolta sau îmbunătăți experiența utilizatorilor, sistemele și software-ul.

Dând clic pe ‘Sunt de acord’, permiteți utilizarea cookie-urilor menționate, a identificatorilor de dispozitiv, balizelor web sau altor tehnologii similare. Setările pot fi modificate din browser-ul dispozitivului dumneavoastră.

În anumite scopuri, interesele legitime pot prima asupra consimțământului. Puteți citi mai multe informații în acest sens în Politica privind Confidențialitatea Datelor și Cookie.